Duluth, MN

9:12 PM CST on January 18, 2017 (GMT -0600)
Sky Harbor

Weather History for KDYT - January, 2013

Change the Weather History Date:

Tuesday, January 22, 2013

  Actual Average Record
Temperature  
Mean Temperature -8 °F -  
Max Temperature 1 °F 26 °F 45 °F (1981)
Min Temperature -16 °F 6 °F -25 °F (1954)
Degree Days  
Heating Degree Days 72    
Moisture  
Dew Point -18 °F    
Average Humidity 60    
Maximum Humidity 70    
Minimum Humidity 47    
Precipitation  
Precipitation 0.00 in - - ()
Sea Level Pressure  
Sea Level Pressure 30.29 in    
Wind  
Wind Speed 9 mph (SW)    
Max Wind Speed 16 mph    
Max Gust Speed 18 mph    
Visibility 10 miles    
Events      
Averages and records for this station are not official NWS values.
T = Trace of Precipitation, MM = Missing Value Source: NWS Daily Summary

Daily Weather History Graph

Daily Weather History Graph

Search for Another Location

Airport or City:

Trip Planner

Search our weather history database for the weather conditions in past years. The results will help you decide how hot, cold, wet, or windy it might be!

Date:

Astronomy

Jan. 22, 2013 Rise Set
Actual Time 7:42 AM CST 4:57 PM CST
Civil Twilight 7:09 AM CST 5:30 PM CST
Nautical Twilight 6:32 AM CST 6:07 PM CST
Astronomical Twilight 5:56 AM CST 6:43 PM CST
Moon 1:17 PM CST (1/22) 4:07 AM CST (1/22)
Length of Visible Light 10h 21m
Length of Day
9h 14m
Waxing Gibbous, 83% of the Moon is Illuminated
Jan 22
Waxing Gibbous
Jan 26
Full
Feb 3
Last Quarter
Feb 10
New
Feb 17
First Quarter

Hourly Weather History & Observations

Time (CST) Temp. Windchill Dew Point Humidity Pressure Visibility Wind Dir Wind Speed Gust Speed Precip Events Conditions
12:13 AM -9.4 °F -25.6 °F -20.2 °F 59% 30.28 in 10.0 mi West 8.1 mph - N/A   Clear
12:33 AM -11.2 °F -30.1 °F -20.2 °F 64% 30.28 in 10.0 mi WNW 10.4 mph - N/A   Clear
12:54 AM -11.2 °F -30.1 °F -20.2 °F 64% 30.28 in 10.0 mi WNW 10.4 mph - N/A   Clear
1:14 AM -11.2 °F -31.1 °F -20.2 °F 64% 30.29 in 10.0 mi West 11.5 mph - N/A   Clear
1:34 AM -11.2 °F -31.1 °F -20.2 °F 64% 30.30 in 10.0 mi WNW 11.5 mph - N/A   Clear
1:54 AM -11.2 °F -30.1 °F -22.0 °F 59% 30.30 in 10.0 mi WNW 10.4 mph - N/A   Clear
2:14 AM -11.2 °F -32.1 °F -22.0 °F 59% 30.31 in 10.0 mi WNW 12.7 mph - N/A   Clear
2:53 AM -13.0 °F -31.3 °F -23.8 °F 59% 30.31 in 10.0 mi WNW 9.2 mph - N/A   Clear
3:14 AM -13.0 °F -30.0 °F -23.8 °F 59% 30.31 in 10.0 mi WSW 8.1 mph - N/A   Clear
3:33 AM -13.0 °F -28.6 °F -23.8 °F 59% 30.32 in 10.0 mi WSW 6.9 mph - N/A   Clear
3:53 AM -14.8 °F -32.2 °F -23.8 °F 64% 30.32 in 10.0 mi WSW 8.1 mph - N/A   Clear
4:14 AM -14.8 °F -33.5 °F -23.8 °F 64% 30.32 in 10.0 mi WSW 9.2 mph - N/A   Clear
4:33 AM -14.8 °F -32.2 °F -23.8 °F 64% 30.32 in 10.0 mi WSW 8.1 mph - N/A   Clear
4:53 AM -14.8 °F -33.5 °F -23.8 °F 64% 30.33 in 10.0 mi WSW 9.2 mph - N/A   Clear
5:14 AM -14.8 °F -33.5 °F -23.8 °F 64% 30.33 in 10.0 mi WSW 9.2 mph - N/A   Clear
5:33 AM -14.8 °F -32.2 °F -23.8 °F 64% 30.34 in 10.0 mi West 8.1 mph - N/A   Clear
5:53 AM -14.8 °F -32.2 °F -23.8 °F 64% 30.35 in 10.0 mi WSW 8.1 mph - N/A   Clear
6:14 AM -14.8 °F -33.5 °F -23.8 °F 64% 30.35 in 10.0 mi WSW 9.2 mph - N/A   Clear
6:33 AM -14.8 °F -32.2 °F -23.8 °F 64% 30.35 in 10.0 mi WSW 8.1 mph - N/A   Clear
6:53 AM -14.8 °F -29.1 °F -23.8 °F 64% 30.35 in 10.0 mi SW 5.8 mph - N/A   Clear
7:14 AM -16.6 °F -31.3 °F -23.8 °F 70% 30.35 in 10.0 mi SW 5.8 mph - N/A   Clear
7:33 AM -16.6 °F -32.9 °F -23.8 °F 70% 30.34 in 10.0 mi SW 6.9 mph - N/A   Clear
7:53 AM -16.6 °F -32.9 °F -23.8 °F 70% 30.34 in 10.0 mi SW 6.9 mph - N/A   Clear
8:14 AM -16.6 °F -34.4 °F -23.8 °F 70% 30.34 in 10.0 mi SSW 8.1 mph - N/A   Clear
8:33 AM -16.6 °F -32.9 °F -23.8 °F 70% 30.34 in 10.0 mi SSW 6.9 mph - N/A   Clear
8:53 AM -14.8 °F -32.2 °F -23.8 °F 64% 30.34 in 10.0 mi SW 8.1 mph - N/A   Clear
9:14 AM -14.8 °F -30.8 °F -23.8 °F 64% 30.35 in 10.0 mi SW 6.9 mph - N/A   Clear
9:33 AM -14.8 °F -29.1 °F -23.8 °F 64% 30.36 in 10.0 mi SSW 5.8 mph - N/A   Clear
9:53 AM -13.0 °F -30.0 °F -22.0 °F 64% 30.36 in 10.0 mi SW 8.1 mph - N/A   Clear
10:14 AM -11.2 °F -29.0 °F -20.2 °F 64% 30.36 in 10.0 mi SSW 9.2 mph - N/A   Clear
10:33 AM -11.2 °F -29.0 °F -20.2 °F 64% 30.36 in 10.0 mi SSW 9.2 mph - N/A   Clear
10:54 AM -9.4 °F -26.8 °F -20.2 °F 59% 30.36 in - SSW 9.2 mph - N/A   Clear
11:14 AM -9.4 °F -26.8 °F -18.4 °F 65% 30.35 in 10.0 mi SSW 9.2 mph - N/A   Clear
11:33 AM -7.6 °F -23.4 °F - N/A% 3.03 in 10.0 mi SW 8.1 mph - N/A   Clear
11:53 AM -5.8 °F -23.4 °F -18.4 °F 55% 30.32 in 10.0 mi SW 10.4 mph - N/A   Clear
12:14 PM -5.8 °F -19.9 °F -16.6 °F 60% 30.32 in 10.0 mi WSW 6.9 mph - N/A   Clear
12:33 PM -4.0 °F -20.2 °F -16.6 °F 55% 30.31 in 10.0 mi SW 9.2 mph - N/A   Clear
12:54 PM -4.0 °F -19.0 °F -16.6 °F 55% 30.29 in 10.0 mi WSW 8.1 mph - N/A   Clear
1:14 PM -2.2 °F -19.9 °F -14.8 °F 55% 30.29 in 10.0 mi WSW 11.5 mph - N/A   Clear
1:33 PM -2.2 °F -19.9 °F -14.8 °F 55% 30.29 in 10.0 mi WSW 11.5 mph 17.3 mph N/A   Clear
1:54 PM -0.4 °F -15.7 °F -14.8 °F 51% 30.28 in 10.0 mi SW 9.2 mph - N/A   Clear
2:14 PM -0.4 °F -17.6 °F -14.8 °F 51% 30.27 in 10.0 mi SW 11.5 mph - N/A   Clear
2:33 PM -0.4 °F -20.5 °F -14.8 °F 51% 30.27 in 10.0 mi SW 16.1 mph - N/A   Clear
2:54 PM -0.4 °F -19.9 °F -14.8 °F 51% 30.27 in 10.0 mi WSW 15.0 mph 18.4 mph N/A   Clear
3:14 PM 1.4 °F -16.9 °F -14.8 °F 47% 30.28 in 10.0 mi WSW 13.8 mph - N/A   Clear
3:33 PM 1.4 °F -16.9 °F -14.8 °F 47% 30.28 in 10.0 mi SW 13.8 mph - N/A   Clear
3:54 PM 1.4 °F -16.1 °F -13.0 °F 51% 30.27 in 10.0 mi SW 12.7 mph 16.1 mph N/A   Clear
4:14 PM 1.4 °F -16.9 °F -13.0 °F 51% 30.26 in 10.0 mi SW 13.8 mph - N/A   Clear
4:33 PM 1.4 °F -13.5 °F -13.0 °F 51% 30.27 in 10.0 mi WSW 9.2 mph - N/A   Clear
4:54 PM 1.4 °F -11.3 °F -13.0 °F 51% 30.27 in 10.0 mi WSW 6.9 mph - N/A   Clear
5:14 PM 1.4 °F -9.9 °F -11.2 °F 56% 30.27 in 10.0 mi SW 5.8 mph - N/A   Clear
5:33 PM -0.4 °F -13.4 °F -11.2 °F 60% 30.27 in 10.0 mi SW 6.9 mph - N/A   Clear
5:54 PM -0.4 °F -14.7 °F -13.0 °F 55% 30.26 in 10.0 mi SW 8.1 mph - N/A   Clear
6:13 PM -0.4 °F -14.7 °F -13.0 °F 55% 30.26 in 10.0 mi SW 8.1 mph - N/A   Clear
6:34 PM -0.4 °F -14.7 °F -13.0 °F 55% 30.25 in 10.0 mi SSW 8.1 mph - N/A   Clear
6:53 PM -0.4 °F -15.7 °F -13.0 °F 55% 30.25 in 10.0 mi SW 9.2 mph - N/A   Clear
7:13 PM -0.4 °F -15.7 °F -13.0 °F 55% 30.25 in 10.0 mi SSW 9.2 mph - N/A   Clear
7:34 PM -0.4 °F -14.7 °F -13.0 °F 55% 30.25 in 10.0 mi SSW 8.1 mph - N/A   Clear
7:53 PM -0.4 °F -15.7 °F -11.2 °F 60% 30.24 in 10.0 mi SW 9.2 mph - N/A   Clear
8:13 PM -0.4 °F -15.7 °F -13.0 °F 55% 30.24 in 10.0 mi SW 9.2 mph - N/A   Clear
8:34 PM -2.2 °F -18.0 °F -13.0 °F 60% 30.23 in 10.0 mi SSW 9.2 mph - N/A   Clear
8:53 PM -2.2 °F -18.0 °F -13.0 °F 60% 30.23 in 10.0 mi SSW 9.2 mph - N/A   Clear
9:14 PM -2.2 °F -16.8 °F -13.0 °F 60% 30.23 in 10.0 mi SSW 8.1 mph - N/A   Clear
9:33 PM -2.2 °F -15.6 °F -13.0 °F 60% 30.23 in 10.0 mi SW 6.9 mph - N/A   Clear
9:54 PM -2.2 °F -16.8 °F -13.0 °F 60% 30.23 in 10.0 mi SW 8.1 mph - N/A   Clear
10:14 PM -2.2 °F -18.0 °F -13.0 °F 60% 30.22 in 10.0 mi SSW 9.2 mph - N/A   Clear
10:33 PM -4.0 °F -19.0 °F -13.0 °F 65% 30.22 in 10.0 mi SSW 8.1 mph - N/A   Clear
10:54 PM -4.0 °F -17.8 °F -13.0 °F 65% 30.22 in 10.0 mi SSW 6.9 mph - N/A   Clear
11:14 PM -2.2 °F -15.6 °F -11.2 °F 66% 30.22 in 10.0 mi SSW 6.9 mph - N/A   Mostly Cloudy
11:33 PM -2.2 °F -16.8 °F -11.2 °F 66% 30.21 in 10.0 mi SSW 8.1 mph - N/A   Overcast
11:54 PM -2.2 °F -18.9 °F -11.2 °F 66% 30.20 in 10.0 mi SSW 10.4 mph - N/A   Overcast